User: anonymous
Location: Utrecht
(52.0830°N, 5.1330°E)
Time: 16:02:09
(UTC+02:00)
Language:

Cosmos 1092 Rocket - Orbit

View from above orbital plane
View from above orbital plane
View from above satellite
View from above satellite

Ground track
Ground track

The orbit data is extracted from the following two-line orbital elements,

1 11327U 79030B   14244.75511811  .00000032  00000-0  16711-4 0  8250
2 11327 082.9531 332.7899 0028717 151.6304 008.5630 13.76940506778847
Epoch (UTC): 01 September 2014 18:07:22
Eccentricity: 0.0028717
inclination: 82.9531°
perigee height: 953 km
apogee height: 996 km
right ascension of ascending node: 332.7899°
argument of perigee: 151.6304°
revolutions per day: 13.76940506
mean anomaly at epoch: 8.5630°
orbit number at epoch: 77884

The dashed part of the orbit path shows where the satellite is in the earth's shadow,  

DLR